User: anonymous   Login
Location: Newark
(49.2191°N, 12.6671°E)
Time: 03:59:20
(UTC+00:00)
Language:

Tiros 1 - Orbit

View from above orbital plane
View from above orbital plane
View from above satellite
View from above satellite

Ground track
Ground track

The orbit data is extracted from the following two-line orbital elements,

1    29U 60002B   20017.31820094 -.00000143 +00000-0 +97630-5 0  9995
2    29 048.3805 306.5827 0024647 301.2131 058.6366 14.74337274196097
Epoch (UTC): 17 January 2020 07:38:12
Eccentricity: 0.0024647
inclination: 48.3805°
perigee height: 630 km
apogee height: 664 km
right ascension of ascending node: 306.5827°
argument of perigee: 301.2131°
revolutions per day: 14.74337274
mean anomaly at epoch: 58.6366°
orbit number at epoch: 19609

The dashed part of the orbit path shows where the satellite is in the earth's shadow,  

DLR